Regional Weather Roundup
Issued by NWS Sioux Falls, SD

Home | Current Version | Previous Version | Graphics & Text | Print | Product List | Glossary Off
Versions: 1 2 3 4 5 6 7 8 9 10 11 12 13 14 15 16 17 18 19 20 21 22 23 24 25 26 27 28 29 30 31 32 33 34 35 36 37 38 39 40 41 42 43 44 45 46 47 48 49 50

000
ASUS43 KFSD 282002
RWRFSD

WEATHER ROUNDUP FOR SE SOUTH DAKOTA/SW MINNESOTA/NW IOWA
NATIONAL WEATHER SERVICE SIOUX FALLS SD
300 PM CDT FRI APR 28 2017

NOTE: "FAIR" INDICATES FEW OR NO CLOUDS BELOW 12,000 FEET WITH NO
SIGNIFICANT WEATHER AND OR OBSTRUCTIONS TO VISIBILITY.


SDZ038>040-050-052>070-282100-
SOUTHEAST SOUTH DAKOTA

CITY           SKY/WX    TMP DP  RH WIND       PRES   REMARKS
BROOKINGS      CLOUDY    47  27  45 NE18      29.95S
CHAMBERLAIN    MOSUNNY   52  27  39 N14       29.97R
HURON          PTSUNNY   53  25  33 NE23G30   29.97R
MADISON        FAIR      46  28  49 NE15G26   29.95R
MITCHELL       CLOUDY    51  28  41 NE16      29.97R
SIOUX FALLS    CLOUDY    48  33  56 NE14      29.95R
WINNER         FAIR      52  27  38 NE13G21   29.97R
YANKTON        CLOUDY    45  28  53 N13       29.93S
$$

MNZ071-072-080-081-089-090-097-098-282100-
SOUTHWEST MINNESOTA

CITY           SKY/WX    TMP DP  RH WIND       PRES   REMARKS
FAIRMONT       CLOUDY    44  33  65 NE13      29.93F
JACKSON        CLOUDY    45  32  61 NE14      29.93F
LUVERNE        CLOUDY    45  30  57 NE13G20   29.93S
MARSHALL       MOSUNNY   49  30  48 NE14G25   29.96R
MONTEVIDEO     CLOUDY    52  27  37 NE14G23   29.97R
PIPESTONE      CLOUDY    45  27  49 NE13G18   29.94R
REDWOOD FALLS  CLOUDY    50  31  48 N8        29.96S
TRACY          CLOUDY    47  33  59 NE13      29.96S
WINDOM         CLOUDY    45  30  57 N14G20    29.94F
WORTHINGTON    CLOUDY    44  32  62 N18G25    29.92F
$$

IAZ001>003-012>014-020>022-031-032-NEZ013-014-SDZ071-282100-
NORTHWEST IOWA

CITY           SKY/WX    TMP DP  RH WIND       PRES   REMARKS
CHEROKEE       CLOUDY    45  33  64 NE13G21   29.89S
DENISON        CLOUDY    37  37 100 NE16G24   29.87R FOG
ESTHERVILLE    PTSUNNY   44  34  67 NE14      29.92F
LE MARS        CLOUDY    46  32  57 N13G20    29.92R
ORANGE CITY    CLOUDY    46  34  61 NE6G18    29.91R
SHELDON        CLOUDY    46  34  61 NE18      29.89S
SIOUX CITY     LGT RAIN  44  34  67 NE16G22   29.90S
SPENCER        CLOUDY    45  32  60 NE20      29.91S
STORM LAKE     MIX PCPN  39  34  81 E15       29.88S
$$

ABBREVIATIONS USED IN REMARKS
   TC - TEMPERATURE IN CELSIUS
  WCI - WIND CHILL INDEX
   HX - HEAT INDEX
  VSB - VISIBILITY




USA.gov is the U.S. government's official web portal to all federal, state and local government web resources and services.